Location: Kunchanapalle
(16.4623°N, 80.6176°E)
Time: 18:17:42
(UTC+00:00)

Cosmos 1709 Rocket - Pass Details

Date: 13 August 2020
Orbit: 947 x 1003 km, 82.9° (Epoch: 17 September)

Event Time Altitude Azimuth Distance (km) Brightness Sun altitude
Rises 23:16:47 0° 346° (NNW) 3,620 7.1 -15.6°
Reaches altitude 10° 23:19:22 10° 341° (NNW) 2,669 6.3 -15.0°
Maximum altitude 23:25:10 48° 268° (W) 1,221 4.1 -13.7°
Drops below altitude 10° 23:30:57 10° 196° (SSW) 2,661 6.0 -12.4°
Sets 23:33:32 0° 190° (S) 3,608 6.7 -11.8°
